Location: Arcones
(41.1182°N, 3.7238°W)
Time: 04:56:22
(UTC+00:00)

Cosmos 2263 Rocket - Pass Details

Date: 18 March 2026
Orbit: 823 x 846 km, 71.0° (Epoch: 17 April)

Event Time Altitude Azimuth Distance (km) Brightness Sun altitude
Rises 21:13:29 0° 347° (NNW) 3,396 5.9 -31.2°
Reaches altitude 10° 21:16:35 10° 3° (N) 2,453 4.9 -31.7°
Enters shadow 21:18:24 16° 20° (NNE) 2,034 4.3 -32.0°
